Time,TemperatureF,DewpointF,PressureIn,WindDirection,WindDirectionDegrees,WindSpeedMPH,WindSpeedGustMPH,Humidity,HourlyPrecipIn,Conditions,Clouds,dailyrainin,SoftwareType,DateUTC
2013-01-03 00:02:00,45.0,-99.9,30.17,North,351,9.0,11.0,-999,-99.99,,,-99.99,,2013-01-03 08:02:00,
2013-01-03 00:12:00,45.0,-99.9,30.17,NNW,347,10.0,12.0,-999,-99.99,,,-99.99,,2013-01-03 08:12:00,
2013-01-03 00:23:00,45.0,-99.9,30.17,NNW,338,9.0,11.0,-999,-99.99,,,-99.99,,2013-01-03 08:23:00,
2013-01-03 00:33:00,45.0,-99.9,30.17,NNW,341,9.0,11.0,-999,-99.99,,,-99.99,,2013-01-03 08:33:00,
2013-01-03 00:53:00,45.0,-99.9,30.17,NNW,344,9.0,11.0,-999,-99.99,,,-99.99,,2013-01-03 08:53:00,
2013-01-03 01:03:00,45.0,-99.9,30.17,North,353,8.0,12.0,-999,-99.99,,,-99.99,,2013-01-03 09:03:00,
2013-01-03 01:12:00,45.0,-99.9,30.17,North,353,8.0,12.0,-999,-99.99,,,-99.99,,2013-01-03 09:12:00,
2013-01-03 01:23:00,45.0,-99.9,30.17,NNW,348,8.0,12.0,-999,-99.99,,,-99.99,,2013-01-03 09:23:00,
2013-01-03 01:34:00,45.0,-99.9,30.17,NNW,348,10.0,12.0,-999,-99.99,,,-99.99,,2013-01-03 09:34:00,
2013-01-03 01:43:00,45.0,-99.9,30.17,North,354,10.0,11.0,-999,-99.99,,,-99.99,,2013-01-03 09:43:00,
2013-01-03 01:53:00,44.0,-99.9,30.17,North,349,9.0,12.0,-999,-99.99,,,-99.99,,2013-01-03 09:53:00,
2013-01-03 02:02:00,44.0,-99.9,30.17,NNW,346,9.0,12.0,-999,-99.99,,,-99.99,,2013-01-03 10:02:00,
2013-01-03 02:12:00,45.0,-99.9,30.18,NNW,340,9.0,11.0,-999,-99.99,,,-99.99,,2013-01-03 10:12:00,
2013-01-03 02:23:00,44.0,-99.9,30.18,NNW,346,11.0,12.0,-999,-99.99,,,-99.99,,2013-01-03 10:23:00,
2013-01-03 02:33:00,44.0,-99.9,30.17,North,-999,10.0,13.0,-999,-99.99,,,-99.99,,2013-01-03 10:33:00,
2013-01-03 02:43:00,45.0,-99.9,30.17,NNW,346,7.0,11.0,-999,-99.99,,,-99.99,,2013-01-03 10:43:00,
2013-01-03 03:03:00,44.0,-99.9,30.17,NNW,340,9.0,11.0,-999,-99.99,,,-99.99,,2013-01-03 11:03:00,
2013-01-03 03:12:00,44.0,-99.9,30.17,NNW,345,11.0,12.0,-999,-99.99,,,-99.99,,2013-01-03 11:12:00,
2013-01-03 03:23:00,44.0,-99.9,30.17,NNW,346,12.0,15.0,-999,-99.99,,,-99.99,,2013-01-03 11:23:00,
2013-01-03 03:33:00,44.0,-99.9,30.17,NNW,343,12.0,14.0,-999,-99.99,,,-99.99,,2013-01-03 11:33:00,
2013-01-03 03:43:00,44.0,-99.9,30.17,NNW,337,10.0,13.0,-999,-99.99,,,-99.99,,2013-01-03 11:43:00,
2013-01-03 04:03:00,43.0,-99.9,30.17,NNW,345,11.0,14.0,-999,-99.99,,,-99.99,,2013-01-03 12:03:00,
2013-01-03 04:12:00,43.0,-99.9,30.17,NNW,345,11.0,14.0,-999,-99.99,,,-99.99,,2013-01-03 12:12:00,
2013-01-03 04:22:00,43.0,-99.9,30.17,NNW,346,8.0,12.0,-999,-99.99,,,-99.99,,2013-01-03 12:22:00,
2013-01-03 04:33:00,43.0,-99.9,30.17,NNW,340,7.0,9.0,-999,-99.99,,,-99.99,,2013-01-03 12:33:00,
2013-01-03 04:43:00,43.0,-99.9,30.17,North,355,6.0,9.0,-999,-99.99,,,-99.99,,2013-01-03 12:43:00,
2013-01-03 04:53:00,43.0,-99.9,30.17,NNW,343,6.0,7.0,-999,-99.99,,,-99.99,,2013-01-03 12:53:00,
2013-01-03 05:03:00,44.0,-99.9,30.17,North,351,6.0,9.0,-999,-99.99,,,-99.99,,2013-01-03 13:03:00,
2013-01-03 05:13:00,44.0,-99.9,30.17,North,349,6.0,8.0,-999,-99.99,,,-99.99,,2013-01-03 13:13:00,
2013-01-03 05:22:00,44.0,-99.9,30.17,NNE,18,4.0,7.0,-999,-99.99,,,-99.99,,2013-01-03 13:22:00,
2013-01-03 05:33:00,43.0,-99.9,30.17,NE,56,1.0,4.0,-999,-99.99,,,-99.99,,2013-01-03 13:33:00,
2013-01-03 05:43:00,43.0,-99.9,30.17,ENE,62,2.0,3.0,-999,-99.99,,,-99.99,,2013-01-03 13:43:00,
2013-01-03 05:53:00,43.0,-99.9,30.17,NE,43,4.0,6.0,-999,-99.99,,,-99.99,,2013-01-03 13:53:00,
2013-01-03 06:03:00,44.0,-99.9,30.17,NW,325,1.0,3.0,-999,-99.99,,,-99.99,,2013-01-03 14:03:00,
2013-01-03 06:12:00,44.0,-99.9,30.17,NNE,19,1.0,3.0,-999,-99.99,,,-99.99,,2013-01-03 14:12:00,
2013-01-03 06:23:00,44.0,-99.9,30.17,NNW,346,6.0,7.0,-999,-99.99,,,-99.99,,2013-01-03 14:23:00,
2013-01-03 06:33:00,43.0,-99.9,30.18,NNW,332,7.0,9.0,-999,-99.99,,,-99.99,,2013-01-03 14:33:00,
2013-01-03 06:43:00,43.0,-99.9,30.18,NNW,337,9.0,10.0,-999,-99.99,,,-99.99,,2013-01-03 14:43:00,
2013-01-03 07:03:00,43.0,-99.9,30.19,NNW,340,11.0,13.0,-999,-99.99,,,-99.99,,2013-01-03 15:03:00,
2013-01-03 07:13:00,44.0,-99.9,30.18,North,11,6.0,10.0,-999,-99.99,,,-99.99,,2013-01-03 15:13:00,
2013-01-03 07:23:00,44.0,-99.9,30.19,NNW,345,7.0,8.0,-999,-99.99,,,-99.99,,2013-01-03 15:23:00,
2013-01-03 07:34:00,43.0,-99.9,30.19,NNW,345,11.0,13.0,-999,-99.99,,,-99.99,,2013-01-03 15:34:00,
2013-01-03 07:43:00,43.0,-99.9,30.19,North,359,11.0,13.0,-999,-99.99,,,-99.99,,2013-01-03 15:43:00,
2013-01-03 07:53:00,43.0,-99.9,30.19,North,4,7.0,11.0,-999,-99.99,,,-99.99,,2013-01-03 15:53:00,
2013-01-03 08:12:00,43.0,-99.9,30.20,NNW,343,5.0,6.0,-999,-99.99,,,-99.99,,2013-01-03 16:12:00,
2013-01-03 08:23:00,44.0,-99.9,30.20,NNW,343,6.0,8.0,-999,-99.99,,,-99.99,,2013-01-03 16:23:00,
2013-01-03 08:34:00,43.0,-99.9,30.21,ENE,65,3.0,7.0,-999,-99.99,,,-99.99,,2013-01-03 16:34:00,
2013-01-03 08:43:00,43.0,-99.9,30.21,East,95,4.0,6.0,-999,-99.99,,,-99.99,,2013-01-03 16:43:00,
2013-01-03 08:53:00,43.0,-99.9,30.22,NNE,21,2.0,6.0,-999,-99.99,,,-99.99,,2013-01-03 16:53:00,
2013-01-03 09:03:00,43.0,-99.9,30.22,ENE,65,2.0,4.0,-999,-99.99,,,-99.99,,2013-01-03 17:03:00,
2013-01-03 09:13:00,44.0,-99.9,30.22,North,11,4.0,6.0,-999,-99.99,,,-99.99,,2013-01-03 17:13:00,
2013-01-03 09:23:00,44.0,-99.9,30.23,NE,36,3.0,6.0,-999,-99.99,,,-99.99,,2013-01-03 17:23:00,
2013-01-03 09:33:00,44.0,-99.9,30.24,NNW,331,3.0,5.0,-999,-99.99,,,-99.99,,2013-01-03 17:33:00,
2013-01-03 09:43:00,44.0,-99.9,30.24,NNW,338,3.0,5.0,-999,-99.99,,,-99.99,,2013-01-03 17:43:00,
2013-01-03 09:53:00,44.0,-99.9,30.24,North,356,4.0,7.0,-999,-99.99,,,-99.99,,2013-01-03 17:53:00,
2013-01-03 10:03:00,44.0,-99.9,30.24,North,356,5.0,7.0,-999,-99.99,,,-99.99,,2013-01-03 18:03:00,
2013-01-03 10:13:00,45.0,-99.9,30.24,NNE,31,5.0,9.0,-999,-99.99,,,-99.99,,2013-01-03 18:13:00,
2013-01-03 10:23:00,45.0,-99.9,30.24,NNW,340,3.0,8.0,-999,-99.99,,,-99.99,,2013-01-03 18:23:00,
2013-01-03 10:33:00,45.0,-99.9,30.24,NNW,334,6.0,8.0,-999,-99.99,,,-99.99,,2013-01-03 18:33:00,
2013-01-03 10:43:00,45.0,-99.9,30.24,NNW,334,6.0,8.0,-999,-99.99,,,-99.99,,2013-01-03 18:43:00,
2013-01-03 11:03:00,45.0,-99.9,30.24,NNW,343,9.0,10.0,-999,-99.99,,,-99.99,,2013-01-03 19:03:00,
2013-01-03 11:13:00,45.0,-99.9,30.24,NNW,342,11.0,13.0,-999,-99.99,,,-99.99,,2013-01-03 19:13:00,
2013-01-03 11:51:00,45.0,-99.9,30.24,NNW,335,11.0,14.0,-999,-99.99,,,-99.99,,2013-01-03 19:51:00,
2013-01-03 11:57:00,45.0,-99.9,30.24,NNW,336,10.0,11.0,-999,-99.99,,,-99.99,,2013-01-03 19:57:00,
2013-01-03 12:03:00,45.0,-99.9,30.24,NNW,335,9.0,11.0,-999,-99.99,,,-99.99,,2013-01-03 20:03:00,
2013-01-03 12:13:00,45.0,-99.9,30.23,NNW,339,9.0,12.0,-999,-99.99,,,-99.99,,2013-01-03 20:13:00,
2013-01-03 12:23:00,46.0,-99.9,30.23,NNW,331,11.0,13.0,-999,-99.99,,,-99.99,,2013-01-03 20:23:00,
2013-01-03 12:33:00,46.0,-99.9,30.22,NNW,331,10.0,14.0,-999,-99.99,,,-99.99,,2013-01-03 20:33:00,
2013-01-03 12:43:00,46.0,-99.9,30.22,NNW,328,10.0,12.0,-999,-99.99,,,-99.99,,2013-01-03 20:43:00,
2013-01-03 12:53:00,47.0,-99.9,30.22,NNW,330,11.0,14.0,-999,-99.99,,,-99.99,,2013-01-03 20:53:00,
2013-01-03 13:03:00,48.0,-99.9,30.21,NNW,334,10.0,14.0,-999,-99.99,,,-99.99,,2013-01-03 21:03:00,
2013-01-03 13:13:00,48.0,-99.9,30.21,NNW,327,9.0,11.0,-999,-99.99,,,-99.99,,2013-01-03 21:13:00,
2013-01-03 13:23:00,49.0,-99.9,30.20,NW,322,10.0,12.0,-999,-99.99,,,-99.99,,2013-01-03 21:23:00,
2013-01-03 13:38:00,51.0,-99.9,30.20,NNW,338,8.0,12.0,-999,-99.99,,,-99.99,,2013-01-03 21:38:00,
2013-01-03 13:51:00,53.0,-99.9,30.20,NNE,31,5.0,8.0,-999,-99.99,,,-99.99,,2013-01-03 21:51:00,
2013-01-03 14:03:00,53.0,-99.9,30.20,NNE,19,6.0,10.0,-999,-99.99,,,-99.99,,2013-01-03 22:03:00,
2013-01-03 14:12:00,54.0,-99.9,30.20,NE,39,5.0,7.0,-999,-99.99,,,-99.99,,2013-01-03 22:12:00,
2013-01-03 14:22:00,54.0,-99.9,30.20,NNE,32,5.0,6.0,-999,-99.99,,,-99.99,,2013-01-03 22:22:00,
2013-01-03 14:33:00,52.0,-99.9,30.20,NW,321,10.0,11.0,-999,-99.99,,,-99.99,,2013-01-03 22:33:00,
2013-01-03 14:43:00,53.0,-99.9,30.20,NNW,336,10.0,11.0,-999,-99.99,,,-99.99,,2013-01-03 22:43:00,
2013-01-03 14:53:00,53.0,-99.9,30.20,NNW,337,10.0,11.0,-999,-99.99,,,-99.99,,2013-01-03 22:53:00,
2013-01-03 15:03:00,54.0,-99.9,30.20,NNW,347,9.0,10.0,-999,-99.99,,,-99.99,,2013-01-03 23:03:00,
2013-01-03 15:12:00,55.0,-99.9,30.20,North,8,9.0,12.0,-999,-99.99,,,-99.99,,2013-01-03 23:12:00,
2013-01-03 15:23:00,55.0,-99.9,30.19,NNE,23,7.0,11.0,-999,-99.99,,,-99.99,,2013-01-03 23:23:00,
2013-01-03 15:33:00,55.0,-99.9,30.19,NNE,30,7.0,11.0,-999,-99.99,,,-99.99,,2013-01-03 23:33:00,
2013-01-03 15:43:00,55.0,-99.9,30.20,NE,42,7.0,9.0,-999,-99.99,,,-99.99,,2013-01-03 23:43:00,
2013-01-03 15:53:00,55.0,-99.9,30.20,North,5,7.0,9.0,-999,-99.99,,,-99.99,,2013-01-03 23:53:00,
2013-01-03 16:03:00,55.0,-99.9,30.21,NNE,15,6.0,9.0,-999,-99.99,,,-99.99,,2013-01-04 00:03:00,
2013-01-03 16:13:00,54.0,-99.9,30.21,NNE,20,7.0,8.0,-999,-99.99,,,-99.99,,2013-01-04 00:13:00,
2013-01-03 16:23:00,54.0,-99.9,30.22,North,8,7.0,9.0,-999,-99.99,,,-99.99,,2013-01-04 00:23:00,
2013-01-03 16:33:00,54.0,-99.9,30.22,NNE,24,6.0,8.0,-999,-99.99,,,-99.99,,2013-01-04 00:33:00,
2013-01-03 16:43:00,54.0,-99.9,30.22,NNE,20,5.0,8.0,-999,-99.99,,,-99.99,,2013-01-04 00:43:00,
2013-01-03 16:53:00,53.0,-99.9,30.22,NNE,13,5.0,7.0,-999,-99.99,,,-99.99,,2013-01-04 00:53:00,
2013-01-03 17:02:00,53.0,-99.9,30.22,NNE,13,5.0,7.0,-999,-99.99,,,-99.99,,2013-01-04 01:02:00,
2013-01-03 17:13:00,52.0,-99.9,30.22,NNW,327,9.0,9.0,-999,-99.99,,,-99.99,,2013-01-04 01:13:00,
2013-01-03 17:22:00,51.0,-99.9,30.22,NNW,337,7.0,9.0,-999,-99.99,,,-99.99,,2013-01-04 01:22:00,
2013-01-03 17:43:00,51.0,-99.9,30.22,NNW,335,6.0,8.0,-999,-99.99,,,-99.99,,2013-01-04 01:43:00,
2013-01-03 17:53:00,51.0,-99.9,30.23,North,358,7.0,10.0,-999,-99.99,,,-99.99,,2013-01-04 01:53:00,
2013-01-03 18:02:00,50.0,-99.9,30.23,NNW,347,9.0,10.0,-999,-99.99,,,-99.99,,2013-01-04 02:02:00,
2013-01-03 18:12:00,50.0,-99.9,30.23,North,355,9.0,11.0,-999,-99.99,,,-99.99,,2013-01-04 02:12:00,
2013-01-03 18:23:00,51.0,-99.9,30.23,North,9,10.0,14.0,-999,-99.99,,,-99.99,,2013-01-04 02:23:00,
2013-01-03 18:33:00,51.0,-99.9,30.23,NNE,14,10.0,12.0,-999,-99.99,,,-99.99,,2013-01-04 02:33:00,
2013-01-03 18:43:00,51.0,-99.9,30.24,North,360,8.0,12.0,-999,-99.99,,,-99.99,,2013-01-04 02:43:00,
2013-01-03 18:53:00,50.0,-99.9,30.24,North,3,7.0,9.0,-999,-99.99,,,-99.99,,2013-01-04 02:53:00,
2013-01-03 19:03:00,50.0,-99.9,30.24,North,356,7.0,8.0,-999,-99.99,,,-99.99,,2013-01-04 03:03:00,
2013-01-03 19:12:00,50.0,-99.9,30.24,North,356,7.0,8.0,-999,-99.99,,,-99.99,,2013-01-04 03:12:00,
2013-01-03 19:22:00,50.0,-99.9,30.24,NNW,346,6.0,8.0,-999,-99.99,,,-99.99,,2013-01-04 03:22:00,
2013-01-03 19:33:00,50.0,-99.9,30.24,North,2,6.0,9.0,-999,-99.99,,,-99.99,,2013-01-04 03:33:00,
2013-01-03 19:43:00,50.0,-99.9,30.24,North,2,5.0,9.0,-999,-99.99,,,-99.99,,2013-01-04 03:43:00,
2013-01-03 19:53:00,50.0,-99.9,30.24,North,2,8.0,10.0,-999,-99.99,,,-99.99,,2013-01-04 03:53:00,
2013-01-03 20:02:00,50.0,-99.9,30.24,North,3,7.0,9.0,-999,-99.99,,,-99.99,,2013-01-04 04:02:00,
2013-01-03 20:12:00,50.0,-99.9,30.24,North,11,9.0,11.0,-999,-99.99,,,-99.99,,2013-01-04 04:12:00,
2013-01-03 20:22:00,50.0,-99.9,30.25,North,356,8.0,11.0,-999,-99.99,,,-99.99,,2013-01-04 04:22:00,
2013-01-03 20:32:00,50.0,-99.9,30.25,North,352,9.0,11.0,-999,-99.99,,,-99.99,,2013-01-04 04:32:00,
2013-01-03 20:42:00,50.0,-99.9,30.25,North,7,7.0,13.0,-999,-99.99,,,-99.99,,2013-01-04 04:42:00,
2013-01-03 20:53:00,50.0,-99.9,30.25,NNE,30,4.0,9.0,-999,-99.99,,,-99.99,,2013-01-04 04:53:00,
2013-01-03 21:22:00,50.0,-99.9,30.25,NNE,15,6.0,9.0,-999,-99.99,,,-99.99,,2013-01-04 05:22:00,
2013-01-03 21:33:00,49.0,-99.9,30.25,NNE,12,4.0,6.0,-999,-99.99,,,-99.99,,2013-01-04 05:33:00,
2013-01-03 21:42:00,48.0,-99.9,30.25,NNW,345,8.0,10.0,-999,-99.99,,,-99.99,,2013-01-04 05:42:00,
2013-01-03 21:53:00,48.0,-99.9,30.26,NNW,335,8.0,9.0,-999,-99.99,,,-99.99,,2013-01-04 05:53:00,
2013-01-03 22:02:00,48.0,-99.9,30.26,NNW,343,7.0,9.0,-999,-99.99,,,-99.99,,2013-01-04 06:02:00,
2013-01-03 22:12:00,49.0,-99.9,30.26,NNE,18,3.0,5.0,-999,-99.99,,,-99.99,,2013-01-04 06:12:00,
2013-01-03 22:22:00,49.0,-99.9,30.26,North,352,6.0,9.0,-999,-99.99,,,-99.99,,2013-01-04 06:22:00,
2013-01-03 22:33:00,48.0,-99.9,30.27,NNW,340,9.0,11.0,-999,-99.99,,,-99.99,,2013-01-04 06:33:00,
2013-01-03 22:43:00,48.0,-99.9,30.27,NNW,342,9.0,10.0,-999,-99.99,,,-99.99,,2013-01-04 06:43:00,
2013-01-03 22:53:00,47.0,-99.9,30.27,NNW,345,11.0,12.0,-999,-99.99,,,-99.99,,2013-01-04 06:53:00,
2013-01-03 23:02:00,47.0,-99.9,30.27,North,356,9.0,11.0,-999,-99.99,,,-99.99,,2013-01-04 07:02:00,
2013-01-03 23:12:00,48.0,-99.9,30.27,North,4,7.0,9.0,-999,-99.99,,,-99.99,,2013-01-04 07:12:00,
2013-01-03 23:22:00,48.0,-99.9,30.27,North,359,7.0,9.0,-999,-99.99,,,-99.99,,2013-01-04 07:22:00,
2013-01-03 23:32:00,48.0,-99.9,30.27,NNW,345,7.0,9.0,-999,-99.99,,,-99.99,,2013-01-04 07:32:00,
2013-01-03 23:43:00,47.0,-99.9,30.26,NNW,339,8.0,10.0,-999,-99.99,,,-99.99,,2013-01-04 07:43:00,
2013-01-03 23:52:00,48.0,-99.9,30.26,NNW,343,9.0,10.0,-999,-99.99,,,-99.99,,2013-01-04 07:52:00,